This is the latest recevied weather packets stored in our database for station/object KB3UMW-13. If no packets are shown the sender has not sent any weather packets the latest 1 day(s).
| Time | Temp. | Humidity | Pressure | Rain* | Wind** | Luminosity | Snow |
|---|---|---|---|---|---|---|---|
| 1778058884 | 12.78° C | 89% | 1008.6 hPa | 1.27 mm | - | 0 W/m² | - |
| 1778058581 | 12.78° C | 88% | 1008.8 hPa | 0.51 mm | - | 0 W/m² | - |
| 1778058279 | 12.78° C | 87% | 1009.1 hPa | 0 mm | - | 0 W/m² | - |
| 1778057975 | 10.56° C | 92% | 1009 hPa | 0 mm | - | 0 W/m² | - |
| 1778057672 | 10° C | 93% | 1008.7 hPa | 0 mm | - | 0 W/m² | - |
| 1778057368 | 10° C | 94% | 1008.8 hPa | 0 mm | - | 0 W/m² | - |
| 1778056157 | 9.44° C | 94% | 1008.9 hPa | 0 mm | - | 0 W/m² | - |
| 1778055853 | 9.44° C | 94% | 1008.9 hPa | 0 mm | - | 0 W/m² | - |
| 1778055548 | 9.44° C | 94% | 1008.8 hPa | 0 mm | - | 0 W/m² | - |
| 1778055248 | 9.44° C | 94% | 1008.7 hPa | 0 mm | - | 0 W/m² | - |
| 1778054641 | 8.89° C | 93% | 1008.7 hPa | 0 mm | - | 0 W/m² | - |
| 1778054339 | 9.44° C | 94% | 1008.8 hPa | 0 mm | - | 0 W/m² | - |
| 1778054036 | 9.44° C | 93% | 1008.7 hPa | 0 mm | - | 0 W/m² | - |
| 1778053733 | 9.44° C | 93% | 1008.9 hPa | 0 mm | - | 0 W/m² | - |
| 1778053430 | 9.44° C | 94% | 1008.9 hPa | 0 mm | - | 0 W/m² | - |
| 1778052825 | 9.44° C | 95% | 1009 hPa | 0 mm | - | 0 W/m² | - |
| 1778051917 | 8.89° C | 94% | 1009 hPa | 0 mm | - | 0 W/m² | - |
| 1778051615 | 8.89° C | 94% | 1009 hPa | 0 mm | - | 0 W/m² | - |
| 1778050706 | 10° C | 91% | 1009 hPa | 0 mm | - | 0 W/m² | - |
| 1778050100 | 10° C | 88% | 1009.1 hPa | 0 mm | - | 0 W/m² | - |
| 1778049493 | 10.56° C | 86% | 1009.2 hPa | 0 mm | - | 0 W/m² | - |
| 1778048889 | 11.67° C | 86% | 1009.5 hPa | 0 mm | - | 0 W/m² | - |
| 1778048586 | 11.67° C | 85% | 1009.5 hPa | 0 mm | - | 0 W/m² | - |
| 1778047979 | 12.22° C | 86% | 1009.5 hPa | 0 mm | - | 0 W/m² | - |
| 1778047677 | 12.22° C | 87% | 1009.9 hPa | 0 mm | - | 0 W/m² | - |
* Rain latest hour (hover to see other rain measurements)
** Current wind speed in m/s (hover to see current wind gust speed)